Location: *
(50.5492°N, 7.7469°E)
Time: 19:47:28
(UTC+00:00)

Cosmos 2227 Rocket - Pass Details

Date: 21 October 2019
Orbit: 838 x 846 km, 71.0° (Epoch: 20 November)

Event Time Altitude Azimuth Distance (km) Brightness Sun altitude
Rises 19:37:34 0° 330° (NNW) 3,420 6.1 -30.8°
Reaches altitude 10° 19:41:06 10° 352° (N) 2,482 4.9 -31.3°
Enters shadow 19:43:20 15° 15° (NNE) 2,141 4.3 -31.6°
